Location: La Beauge
(44.0184°N, 6.6838°E)
Time: 02:16:03
(UTC+00:00)

Daily predictions for brighter satellites

Satellite Brightness Start Highest point End
(mag) Time Altitude Azimuth Time Altitude Azimuth Time Altitude Azimuth
Cosmos 1937 Rocket 3.7 00:04:13 47° SSE 00:05:19 56° ESE 00:10:28 10° NNE
Cosmos 923 Rocket 4.3 00:03:43 10° NNW 00:08:58 64° ENE 00:11:01 36° SE
Cosmos 1844 Rocket 4.3 00:09:59 18° ESE 00:11:38 20° E 00:15:37 10° NE
Cosmos 1898 Rocket 3.4 00:13:33 53° SSW 00:14:50 88° WNW 00:20:02 10° NNE
GEOS 3 Rocket 3.5 00:15:40 10° NE 00:20:50 79° SE 00:22:16 49° SSW
Meteor 2-1 Rocket 4.3 00:16:30 10° N 00:22:25 76° E 00:24:46 38° SSE
In-Cosmos 22 Rocket 4.2 00:27:54 44° SSW 00:29:53 80° W 00:35:45 10° N
CZ-2D R/B 4.0 00:29:06 10° NE 00:32:58 20° E 00:35:45 14° SE
Cosmos 1900 4.4 00:31:44 50° S 00:33:00 73° ESE 00:38:05 10° NE
Helios 1A Rocket 3.2 00:32:17 45° ESE 00:33:02 55° ENE 00:36:47 10° N
Cosmos 1606 2.5 00:31:36 10° N 00:35:11 71° E 00:35:21 69° ESE
Nimbus 7 Rocket 4.4 00:29:44 10° NNE 00:35:50 84° WNW 00:38:16 39° SSW
ADEOS II 4.4 00:34:09 10° NE 00:37:01 15° E 00:39:53 10° ESE
CZ-2C R/B 4.3 00:34:42 10° ESE 00:39:14 30° ENE 00:43:52 10° N
Cosmos 1869 3.0 00:35:32 10° N 00:39:15 80° E 00:39:31 73° SE
Cosmos 2341 Rocket 3.9 00:36:54 39° S 00:39:23 86° W 00:45:39 10° N
CENTAUR R/B 3.7 00:35:46 13° WSW 00:40:38 38° NW 00:47:17 10° NNE
SL-16 R/B 2.9 00:37:05 10° NW 00:42:14 36° WSW 00:43:10 34° SW
Cosmos 1437 Rocket 4.1 00:41:31 25° ESE 00:42:20 28° E 00:45:35 10° NNE
Cosmos 1461 3.5 00:43:01 37° W 00:43:55 45° NW 00:47:40 10° NNE
Cosmos 1603 4.4 00:41:57 10° NNW 00:47:35 53° ENE 00:53:01 11° SE
Cosmos 1680 Rocket 3.4 00:44:30 10° NNW 00:49:43 78° WSW 00:51:38 40° S
Cosmos 2228 3.2 00:45:59 10° N 00:50:18 67° E 00:51:38 41° SSE
Cosmos 2082 4.4 00:48:25 27° WSW 00:51:03 45° WNW 00:56:27 10° NNE
Cosmos 2227 Rocket 4.2 00:47:01 10° W 00:51:05 20° NW 00:55:12 10° N
CRYOSAT 2 4.5 00:47:51 10° N 00:52:42 63° W 00:54:08 43° SW
Cosmos 1943 3.1 00:47:34 10° NNW 00:53:13 89° ENE 00:56:23 27° SSE
Cosmos 2112 Rocket 3.9 00:48:32 10° NNW 00:53:45 85° WSW 00:55:57 36° SSE
Cosmos 1821 Rocket 4.2 00:56:51 29° SSE 01:00:03 64° E 01:06:08 10° NNE
Resurs 1-4 Rocket 3.1 00:55:38 10° NNE 01:00:31 37° E 01:03:22 22° SSE
NPP 4.2 00:56:07 10° NNE 01:01:21 49° E 01:04:00 27° SSE
USA 238 DEB 3.5 00:59:38 35° SSW 01:02:22 71° ESE 01:09:00 10° NE
USA 238 3.5 00:59:40 35° SSW 01:02:25 70° ESE 01:09:03 10° NE
BREEZE-M DEB (TANK) 3.3 01:01:31 10° WNW 01:04:15 28° W 01:04:15 28° W
H-2A R/B 4.4 01:07:50 10° NW 01:09:40 13° WNW 01:11:28 10° W
Cosmos 2218 Rocket 4.1 01:07:06 33° SSW 01:09:58 65° W 01:16:07 10° N
BlueWalker 3 4.3 01:07:12 10° NW 01:10:19 24° NNE 01:13:26 10° ENE
Cosmos 1818 4.0 01:06:08 10° NW 01:11:13 41° WSW 01:12:28 35° SSW
Cosmos 2366 rocket 4.2 01:08:29 32° SSW 01:11:23 61° W 01:17:34 10° N
Cosmos 1544 Rocket 3.9 01:09:25 10° NNW 01:13:42 49° W 01:14:42 40° SW
Cosmos 494 Rocket 4.0 01:21:04 10° NNW 01:26:20 86° ENE 01:30:27 17° SSE
Cosmos 921 Rocket 2.9 01:25:02 10° NNW 01:29:16 82° ENE 01:31:45 24° SSE
Cosmos 1125 Rocket 4.2 01:30:37 21° SSE 01:33:47 46° ESE 01:38:50 10° NNE
IDEFIX/ARIANE 42P 2.5 01:29:43 10° NNE 01:34:59 82° WNW 01:37:48 28° SSW
Cosmos 1844 3.7 01:32:48 28° SSW 01:35:58 85° ESE 01:41:48 10° NNE
Cosmos 2263 Rocket 4.0 01:33:27 10° W 01:37:35 21° NW 01:41:44 10° N
MSX 3.8 01:34:28 10° NNE 01:40:15 88° W 01:43:48 25° SSW
NOSS 3-2 (C) 4.4 01:42:25 14° WSW 01:46:36 37° NW 01:52:27 10° NNE
USA 267 4.5 01:41:09 10° ENE 01:46:39 28° SE 01:51:00 15° S
Cosmos 1606 Rocket 3.5 01:44:32 10° N 01:48:59 80° W 01:51:46 22° S
Iridium 2 3.1 01:54:17 36° SE 01:54:56 50° E 01:57:18 10° NNE
Cosmos 1844 Rocket 2.9 01:51:37 24° SW 01:55:00 60° WNW 02:00:32 10° NNE
CZ-2C R/B 3.0 01:49:41 10° NNE 01:55:02 89° WNW 01:58:24 22° SSW
SL-16 R/B 3.0 01:50:36 10° SSE 01:56:46 65° ENE 02:02:55 10° N
Cosmos 1867 4.3 01:55:11 19° WSW 01:58:54 46° NW 02:04:11 10° NNE
SL-24 DEB 4.2 01:55:33 10° N 02:00:08 83° E 02:03:33 18° S
Cosmos 1726 Rocket 3.5 01:58:26 10° NNW 02:02:52 76° W 02:06:13 17° S
Cosmos 1727 Rocket 4.5 01:59:26 10° NNW 02:05:23 44° W 02:09:39 19° SSW
H-2A R/B 4.2 02:04:13 10° N 02:07:56 38° WNW 02:10:00 21° SW
Cosmos 1238 Rocket 3.2 02:09:40 10° N 02:12:46 43° E 02:15:35 10° SSE
CZ-2D R/B 2.4 02:08:08 10° N 02:13:19 55° WNW 02:17:02 18° SW
USA 81 4.1 02:09:50 10° N 02:15:09 84° E 02:20:25 10° S
ALOS 2.5 02:10:57 10° NNE 02:15:34 65° ESE 02:19:41 13° S
ADEOS II 2.1 02:11:57 10° N 02:17:11 74° WNW 02:21:21 16° SSW
Cosmos 1437 Rocket 4.4 02:16:19 15° WSW 02:18:00 20° WNW 02:20:50 10° NNW
CZ-2C R/B 3.2 02:15:43 17° SSW 02:19:19 40° W 02:24:24 10° NNW
Alouette 2 Rocket 3.4 02:19:18 18° SSW 02:22:27 70° WNW 02:26:03 10° N
BREEZE-M DEB (TANK) 3.9 02:23:33 17° SSW 02:23:33 17° SSW 02:26:32 10° SSE
Lacrosse 5 4.1 02:21:59 10° SSE 02:24:58 16° ESE 02:27:56 10° E
CZ-2C R/B 4.2 02:21:18 10° NE 02:25:02 24° E 02:28:47 10° SSE
ASTEX 1 3.5 02:21:24 14° S 02:25:31 58° W 02:30:20 10° NNW
AQUA 3.8 02:21:31 10° N 02:26:14 73° WNW 02:30:10 15° SSW
Cosmos 1607 4.3 02:20:48 10° NW 02:26:50 45° WSW 02:32:43 10° S
Cosmos 2278 Rocket 4.2 02:23:17 10° SSE 02:27:38 23° E 02:31:59 10° NE
NOSS 2-2 (E) 3.8 02:26:27 15° S 02:28:53 37° ESE 02:31:48 10° NE
ATLAS 5 CENTAUR R/B 1.2 02:26:52 18° SSW 02:29:06 55° ESE 02:32:33 10° NE
FENGYUN 3A 3.8 02:24:08 10° N 02:29:25 60° WNW 02:33:58 14° SSW
Cosmos 1812 2.8 02:28:18 10° NNW 02:31:45 47° W 02:34:36 14° SSW
Cosmos 1271 Rocket 4.5 02:32:27 10° SSE 02:35:31 27° E 02:38:36 10° NNE
Resurs 1-4 Rocket 3.2 02:35:37 10° N 02:40:12 31° WNW 02:44:25 12° WSW
Cosmos 2298 Rocket 4.1 02:35:43 13° SSW 02:40:35 84° WNW 02:45:57 10° NNE
Timation 2 Rocket 4.3 02:37:21 13° SW 02:43:08 60° WNW 02:49:25 10° NNE
Cosmos 2058 3.2 02:40:06 14° SSW 02:43:27 49° WNW 02:47:25 10° N
BlueWalker 3 2.0 02:45:11 10° NW 02:48:56 78° NE 02:52:41 10° ESE
Cosmos 1933 4.2 02:45:34 10° N 02:49:26 51° ENE 02:53:15 10° SSE
SAR-Lupe-4 3.6 02:45:59 10° N 02:49:31 67° WNW 02:53:03 10° SSW
Cosmos 1758 Rocket 4.0 02:46:35 10° S 02:50:56 63° E 02:55:16 10° NNE
Cosmos 2058 Rocket 3.5 02:47:13 10° NNW 02:51:25 43° W 02:55:32 10° SSW
NOSS 2-2 (C) 3.1 02:56:39 11° SW 02:59:39 53° NW 03:02:43 10° NNE
Cosmos 1544 3.5 02:57:59 12° SW 02:59:57 26° WNW 03:02:13 10° NNW
Envisat 3.1 02:55:06 10° NNE 03:00:13 86° ESE 03:05:17 10° SSW
H-2A R/B 4.2 02:57:14 10° NE 03:01:29 24° E 03:05:36 10° SSE
Cosmos 1605 Rocket 4.1 02:56:13 10° SSW 03:02:17 58° WNW 03:08:20 10° N
Cosmos 1862 3.9 02:59:21 10° S 03:03:02 55° E 03:06:47 10° NNE
Cosmos 1500 4.1 03:00:22 10° SSE 03:03:37 42° E 03:06:53 10° NNE
Iridium 4 Rocket 3.9 03:03:22 10° NNW 03:07:41 40° W 03:12:19 10° SSW
NOSS 2-3 (D) 3.2 03:04:22 10° SW 03:08:01 85° NW 03:12:00 10° NE
Cosmos 1833 Rocket 2.7 03:03:01 10° NNW 03:08:43 89° WSW 03:14:21 10° SSE
USA 276 3.5 03:06:14 10° SSW 03:08:44 25° SE 03:11:10 10° E
Cosmos 1626 Rocket 3.9 03:06:15 10° SSW 03:10:34 52° WNW 03:14:53 10° N
NOSS 2-2 (D) 2.9 03:08:36 10° SW 03:11:55 66° NW 03:15:02 10° NNE
Meteor 2-2 Rocket 4.3 03:12:22 10° NNW 03:17:58 68° W 03:23:33 10° S
